User: anonymous   Login
Location: Wildcat Hills Observatory
(41.6350°N, 103.6812°W)
Time: 17:20:30
(UTC-06:00)
Language:

Cosmos 1634 Rocket - Orbit

View from above orbital plane
View from above orbital plane
View from above satellite
View from above satellite

Ground track
Ground track

The orbit data is extracted from the following two-line orbital elements,

1 15598U 85022B   15144.54794708  .00000130  00000-0  11682-3 0  9999
2 15598 082.9359 308.0007 0023372 061.7392 000.6311 13.76523562516642
Epoch (UTC): 24 May 2015 13:09:02
Eccentricity: 0.0023372
inclination: 82.9359°
perigee height: 959 km
apogee height: 993 km
right ascension of ascending node: 308.0007°
argument of perigee: 61.7392°
revolutions per day: 13.76523562
mean anomaly at epoch: 0.6311°
orbit number at epoch: 51664

The dashed part of the orbit path shows where the satellite is in the earth's shadow,  

DLR